When you browse on this site, cookies collect data to enhance your experience and personalize the content and advertising you see.
Visit our Privacy Policy to learn more. By continuing to use the site, you agree to this use of cookies and data.
  • In Latvia
  • List of Countries
  • For 7 days
  • Water Temperature
  • Weather Map
  • Weather Widgets
  • user-avatar
    Login

    Hourly Weather La Massana

    Today, 20 February, Thursday

    Time Temperature Precipitation Wind Pressure Humidity
    00:00 0°C° 0 mm 1 mps 613 mmHg 50%
    01:00 0°C° 0 mm 1 mps 613 mmHg 47%
    02:00 0°C° 0 mm 1 mps 612 mmHg 44%
    03:00 0°C° 0 mm 1 mps 612 mmHg 41%
    04:00 +1°C° 0 mm 1 mps 612 mmHg 38%
    05:00 +1°C° 0 mm 1 mps 612 mmHg 35%
    06:00 +1°C° 0 mm 1 mps 612 mmHg 30%
    07:00 +3°C° 0 mm 1 mps 613 mmHg 30%
    08:00 +5°C° 0 mm 1 mps 614 mmHg 29%
    09:00 +6°C° 0 mm 0 mps 615 mmHg 28%
    10:00 +8°C° 0 mm 0 mps 615 mmHg 28%
    11:00 +10°C° 0 mm 1 mps 615 mmHg 27%
    12:00 +11°C° 0 mm 1 mps 616 mmHg 27%
    13:00 +11°C° 0 mm 1 mps 616 mmHg 30%
    14:00 +10°C° 0 mm 1 mps 615 mmHg 32%
    15:00 +10°C° 0 mm 1 mps 615 mmHg 35%
    16:00 +7°C° 0 mm 1 mps 614 mmHg 45%
    17:00 +5°C° 0 mm 1 mps 613 mmHg 54%
    18:00 +2°C° 0 mm 1 mps 612 mmHg 64%
    19:00 +2°C° 0 mm 1 mps 613 mmHg 64%
    20:00 +1°C° 0 mm 1 mps 613 mmHg 64%
    21:00 +1°C° 0 mm 1 mps 613 mmHg 64%
    22:00 +1°C° 0 mm 1 mps 614 mmHg 68%
    23:00 0°C° 0 mm 1 mps 614 mmHg 72%

    Tomorrow, 21 February, Friday

    Time Temperature Precipitation Wind Pressure Humidity
    00:00 -2°C° 0 mm 2 mps 614 mmHg 76%
    01:00 0°C° 0 mm 1 mps 614 mmHg 75%
    02:00 0°C° 0 mm 1 mps 614 mmHg 74%
    03:00 0°C° 0 mm 1 mps 614 mmHg 73%
    04:00 0°C° 0 mm 1 mps 614 mmHg 72%
    05:00 0°C° 0 mm 1 mps 614 mmHg 70%
    06:00 0°C° 0 mm 1 mps 614 mmHg 69%
    13:00 +9°C° 0 mm 1 mps 618 mmHg 41%
    14:00 +9°C° 0 mm 1 mps 618 mmHg 44%
    15:00 +9°C° 0 mm 1 mps 617 mmHg 47%
    16:00 +6°C° 0 mm 1 mps 616 mmHg 58%
    17:00 +4°C° 0 mm 1 mps 616 mmHg 70%
    18:00 +2°C° 0 mm 1 mps 615 mmHg 82%
    19:00 +2°C° 0 mm 1 mps 615 mmHg 71%
    20:00 +2°C° 0 mm 1 mps 615 mmHg 61%
    21:00 +2°C° 0 mm 1 mps 615 mmHg 50%
    22:00 +2°C° 0 mm 1 mps 615 mmHg 45%
    23:00 +2°C° 0 mm 1 mps 615 mmHg 39%

    Day after tomorrow, 22 February, Saturday

    Time Temperature Precipitation Wind Pressure Humidity
    00:00 +2°C° 0 mm 1 mps 616 mmHg 34%
    01:00 +2°C° 0 mm 1 mps 615 mmHg 31%
    02:00 +2°C° 0 mm 1 mps 615 mmHg 29%
    03:00 +2°C° 0 mm 1 mps 615 mmHg 26%
    04:00 +2°C° 0 mm 1 mps 615 mmHg 26%
    05:00 +2°C° 0 mm 1 mps 616 mmHg 26%
    06:00 +2°C° 0 mm 1 mps 616 mmHg 26%
    07:00 +4°C° 0 mm 1 mps 617 mmHg 27%
    08:00 +6°C° 0 mm 1 mps 618 mmHg 28%
    09:00 +8°C° 0 mm 1 mps 619 mmHg 29%
    10:00 +9°C° 0 mm 1 mps 620 mmHg 28%
    11:00 +11°C° 0 mm 1 mps 621 mmHg 27%
    12:00 +12°C° 0 mm 1 mps 621 mmHg 26%
    13:00 +12°C° 0 mm 1 mps 621 mmHg 30%
    14:00 +11°C° 0 mm 1 mps 620 mmHg 34%
    15:00 +11°C° 0 mm 1 mps 620 mmHg 38%
    16:00 +9°C° 0 mm 1 mps 619 mmHg 47%
    17:00 +6°C° 0 mm 1 mps 618 mmHg 57%
    18:00 +4°C° 0 mm 1 mps 618 mmHg 67%
    19:00 +4°C° 0 mm 1 mps 618 mmHg 61%
    20:00 +3°C° 0 mm 1 mps 618 mmHg 54%
    21:00 +3°C° 0 mm 1 mps 618 mmHg 47%
    22:00 +3°C° 0 mm 1 mps 618 mmHg 44%
    23:00 +3°C° 0 mm 1 mps 618 mmHg 40%

    23 February, Sunday

    Time Temperature Precipitation Wind Pressure Humidity
    00:00 +3°C° 0 mm 1 mps 618 mmHg 37%
    01:00 +3°C° 0 mm 1 mps 618 mmHg 36%
    02:00 +3°C° 0 mm 1 mps 618 mmHg 35%
    03:00 +3°C° 0 mm 1 mps 617 mmHg 34%
    04:00 +3°C° 0 mm 1 mps 617 mmHg 35%
    05:00 +3°C° 0 mm 1 mps 617 mmHg 36%
    06:00 +3°C° 0 mm 1 mps 617 mmHg 36%
    07:00 +5°C° 0 mm 1 mps 618 mmHg 36%
    08:00 +6°C° 0 mm 0 mps 620 mmHg 36%
    09:00 +8°C° 0 mm 0 mps 621 mmHg 36%
    10:00 +10°C° 0 mm 0 mps 621 mmHg 34%
    11:00 +12°C° 0 mm 1 mps 622 mmHg 32%
    12:00 +14°C° 0 mm 1 mps 622 mmHg 31%
    13:00 +14°C° 0 mm 1 mps 621 mmHg 33%
    14:00 +14°C° 0 mm 1 mps 621 mmHg 36%
    15:00 +13°C° 0 mm 1 mps 620 mmHg 39%
    16:00 +11°C° 0 mm 1 mps 619 mmHg 48%
    17:00 +9°C° 0 mm 1 mps 618 mmHg 57%
    18:00 +5°C° 0 mm 0 mps 617 mmHg 66%
    19:00 +6°C° 0 mm 1 mps 617 mmHg 64%
    20:00 +6°C° 0 mm 1 mps 617 mmHg 62%
    21:00 +6°C° 0 mm 1 mps 617 mmHg 61%
    22:00 +6°C° 0 mm 1 mps 617 mmHg 59%
    23:00 +5°C° 0 mm 1 mps 617 mmHg 58%

    24 February, Monday

    Time Temperature Precipitation Wind Pressure Humidity
    00:00 +5°C° 0 mm 1 mps 617 mmHg 57%
    01:00 +5°C° 0 mm 1 mps 616 mmHg 57%
    02:00 +5°C° 0 mm 1 mps 616 mmHg 57%
    03:00 +5°C° 0 mm 1 mps 615 mmHg 57%
    04:00 +5°C° 0 mm 1 mps 615 mmHg 55%
    05:00 +4°C° 0 mm 1 mps 615 mmHg 54%
    06:00 +4°C° 0 mm 1 mps 615 mmHg 52%
    07:00 +6°C° 0 mm 1 mps 615 mmHg 49%
    08:00 +8°C° 0 mm 1 mps 616 mmHg 45%
    09:00 +10°C° 0 mm 1 mps 617 mmHg 42%
    10:00 +12°C° 0 mm 1 mps 617 mmHg 38%
    11:00 +13°C° 0 mm 1 mps 617 mmHg 34%
    12:00 +14°C° 0 mm 1 mps 618 mmHg 30%
    13:00 +14°C° 0 mm 1 mps 617 mmHg 32%
    14:00 +14°C° 0 mm 1 mps 616 mmHg 34%
    15:00 +13°C° 0 mm 1 mps 616 mmHg 36%
    16:00 +11°C° 0 mm 1 mps 615 mmHg 47%
    17:00 +8°C° 0 mm 1 mps 614 mmHg 58%
    18:00 +6°C° 0 mm 1 mps 612 mmHg 69%
    19:00 +5°C° 0 mm 1 mps 612 mmHg 67%
    20:00 +5°C° 0 mm 1 mps 612 mmHg 65%
    21:00 +4°C° 0 mm 1 mps 612 mmHg 62%
    22:00 +4°C° 0 mm 1 mps 612 mmHg 60%
    23:00 +4°C° 0 mm 1 mps 612 mmHg 57%

    25 February, Tuesday

    Time Temperature Precipitation Wind Pressure Humidity
    00:00 +3°C° 0 mm 1 mps 611 mmHg 55%
    01:00 +3°C° 0 mm 1 mps 611 mmHg 56%
    02:00 +3°C° 0 mm 1 mps 611 mmHg 57%
    03:00 +2°C° 0 mm 1 mps 611 mmHg 58%
    04:00 +2°C° 0 mm 1 mps 610 mmHg 59%
    05:00 +2°C° 0 mm 1 mps 610 mmHg 59%
    06:00 +2°C° 0 mm 1 mps 610 mmHg 59%
    07:00 +3°C° 0 mm 1 mps 611 mmHg 52%
    08:00 +5°C° 0 mm 1 mps 611 mmHg 46%
    09:00 +6°C° 0 mm 1 mps 612 mmHg 39%
    10:00 +7°C° 0 mm 1 mps 612 mmHg 40%
    11:00 +8°C° 0 mm 1 mps 612 mmHg 41%
    12:00 +7°C° 0 mm 2 mps 612 mmHg 42%
    13:00 +6°C° 0 mm 2 mps 612 mmHg 49%
    14:00 +5°C° 0 mm 2 mps 611 mmHg 56%
    15:00 +4°C° 0 mm 2 mps 610 mmHg 63%
    16:00 +3°C° 0 mm 2 mps 610 mmHg 69%
    17:00 +2°C° 0 mm 2 mps 609 mmHg 75%
    18:00 +1°C° 0 mm 2 mps 609 mmHg 82%
    19:00 +1°C° 0.1 mm 2 mps 609 mmHg 84%
    20:00 -1°C° 0.1 mm 2 mps 609 mmHg 87%
    21:00 -1°C° 0.1 mm 2 mps 609 mmHg 89%
    22:00 -1°C° 0.2 mm 2 mps 609 mmHg 90%
    23:00 -1°C° 0.2 mm 2 mps 609 mmHg 91%
    Show more